ONEWEB-0309 (49095 NORAD) Tracking and Keplerian Element Data

This shows tracking and keplerian element data for the satellite.

Feedback or suggestion? Click here.




ElementValue
Catalog49095
NameONEWEB-0309
Epoch Orbit560
Epoch Day262.16668981
Epoch Year2021
RAAN356.4511
Inclination87.4218
Eccentricity0.0021063
Argument of Perigee197.3221
Mean Anonmoly271.8284
Mean Motion15.13991431
Decay Rate-0.00925787
L11 49095U 21075W 21262.16668981 -.00925787 00000-0 -54815-1 0 9994
L22 49095 87.4218 356.4511 0021063 197.3221 271.8284 15.13991431 5601

Live tracking and technical data element details for ONEWEB-0309 (NORAD 49095). ONEWEB-0309 can be tracked NOW for your location showing map with azimuth and elevation plus other details from your city location.

Track the satellite on the map from your city or location and see movement details for azimuth, elevation, latitude, longitude, range, height, and movement on the map or in text.







IsCatalogInMostPopularTable: catalog: 49095, numindb: 7
Update: records affected: 1



GetName: 49095 ONEWEB-0309

Hit Count: updated at: Fri, 24 Sep 2021 18:28:36 GMT